Regional Weather Roundup
Issued by NWS

Home | Current Version | Previous Version | Text Only | Print | Product List | Glossary On
Versions: 1 2 3 4 5 6 7 8 9 10 11 12 13 14 15 16 17 18 19 20 21 22 23 24 25 26 27 28 29 30 31 32 33 34 35 36 37 38 39 40 41 42 43 44 45 46 47 48 49 50
000
ASUS44 KFWD 191310
RWRTX
NORTH TEXAS HOURLY WEATHER ROUNDUP
NATIONAL WEATHER SERVICE FORT WORTH TX
800 AM CDT FRI SEP 19 2014

NOTE: "FAIR" INDICATES FEW OR NO CLOUDS BELOW 12,000 FEET WITH NO
SIGNIFICANT WEATHER AND/OR OBSTRUCTIONS TO VISIBILITY.

TXZ118-119-191400-
DALLAS/FORT WORTH METROPLEX

CITY           SKY/WX    TMP DP  RH WIND       PRES   REMARKS
DFW AIRPORT    PTCLDY    70  67  90 NE7       29.94R
DALLAS LOVE    MOCLDY    71  68  90 E5        29.94S
FTW MEACHAM    CLOUDY    71  67  87 E6        29.94R
DAL-EXECUTIVE  CLOUDY    71  68  90 E5        29.94R FOG
FTW-ALLIANCE   PTCLDY    69  66  90 CALM      29.94R
FTW-NAS-JRB    CLOUDY    74  66  76 E3        29.99R
FTW-SPINKS     FOG       70  68  94 CALM      29.96R VSB 1
ARLINGTON      CLOUDY    71  68  90 NE3       29.94R
GRAND PRAIRIE  CLOUDY    70  68  94 MISG      29.94S
ADDISON        CLOUDY    70  66  88 E6        29.96R
MESQUITE       CLOUDY    70  68  94 CALM      29.95R FOG
LANCASTER      CLOUDY    69  67  93 CALM      29.95R
$$

TXZ091>094-102>105-117-120-121-131>134-191400-
NORTH CENTRAL TEXAS

CITY           SKY/WX    TMP DP  RH WIND       PRES   REMARKS
SHRMAN/DENISON CLEAR     67  65  93 CALM      29.98R FOG
GAINESVILLE    CLEAR     67  66  95 CALM      29.98S
BOWIE          PTCLDY    67  67  99 CALM      29.97R
BRIDGEPORT     CLOUDY    69  69 100 E5        29.97R
DECATUR        CLEAR     66  66  97 E3        29.97R
DENTON         CLEAR     68  65  90 CALM      29.95R
MCKINNEY       FOG       69  68  96 SE5       29.96R VSB 1
GREENVILLE     FOG       68  64  88 CALM      29.97R VSB 1/4
ROCKWALL       FOG       69  69  99 E3        29.95R VSB 1/4
TERRELL        FOG       71  70  96 E7        29.96R VSB 3/4
WAXAHACHIE     FOG       69  68  96 NE3       29.95S VSB<1/4
CLEBURNE       CLOUDY    70  70 100 E5        29.96R FOG
GRANBURY       FOG       70  68  93 CALM      29.96R VSB 1/2
$$

TXZ083>090-098>101-113>116-127>130-139>142-154-155-191400-
WESTERN NORTH TEXAS

CITY           SKY/WX    TMP DP  RH WIND       PRES   REMARKS
WICHITA FALLS  CLEAR     68  67  96 E3        29.95R FOG
WF-KICKAPOO    CLEAR     69  69 100 CALM      29.97R FOG
VERNON         CLOUDY    69  67  94 E3        29.97R VSB 1/4
ABILENE        CLOUDY    70  68  93 SE7       29.97S
ABILENE-DYESS  CLOUDY    70  64  83 E5        29.97R
BRECKENRIDGE   FOG       71  71  99 SE7       29.96R VSB 1
GRAHAM         FOG       69  68  96 CALM      29.94S VSB 1
MINERAL WELLS  CLEAR     69  67  93 E6        29.94R
STEPHENVILLE   CLOUDY    71  68  90 CALM      29.98R
COMANCHE       CLOUDY    70  70 100 CALM      29.95S FOG
BROWNWOOD      CLOUDY    70  70 100 NE3       29.95R
COLEMAN        CLOUDY    70  69  95 E7        29.96R
$$

TXZ143>147-156>162-174-175-191400-
CENTRAL TEXAS

CITY           SKY/WX    TMP DP  RH WIND       PRES   REMARKS
WACO           FOG       69  69 100 NE6       29.93R VSB 1/4
WACO-TSTC      FOG       72  70  94 CALM      29.93R VSB 1/2
WACO-MCGREGOR  CLOUDY    70  66  88 NE6       29.94R VSB<1/4
HILLSBORO      CLOUDY    71  69  93 E5        29.94R FOG
CORSICANA      CLOUDY    73  70  90 E6        29.95R
MEXIA          CLOUDY    72  71  99 E3        29.93R FOG
HEARNE         CLOUDY    73  72  96 NE3       29.92R
CAMERON        CLOUDY    73  73  98 CALM      29.91R FOG
TEMPLE         CLOUDY    72  66  83 NE9       29.91S VSB 1/4
KILLEEN        CLOUDY    72  72 100 E7        29.91R FOG
KILLEEN-SKYLRK CLOUDY    72  66  83 NE7       29.92R
FORT HOOD      CLOUDY    74  72  93 CALM      29.93R
GATESVILLE     CLOUDY    72  72 100 E3        29.95S FOG
HAMILTON       CLOUDY    72  72 100 E6        29.95S FOG
LAMPASAS       CLOUDY    72  71  97 NE6       29.92S FOG
$$

TXZ095>097-106>112-122>126-135>138-148>153-164>167-191400-
EAST TEXAS

CITY           SKY/WX    TMP DP  RH WIND       PRES   REMARKS
PARIS          CLOUDY    72  64  78 E8        29.99R
SULPHUR SPRNGS CLEAR     69  69  98 CALM      29.99S
MOUNT PLEASANT CLOUDY    72  71  98 NE5       29.99R
GILMER         CLOUDY    70  70 100 CALM      29.98R
MINEOLA        FOG       66  66 100 CALM      29.98R VSB 1/4
TYLER          SUNNY     69  67  93 CALM      29.96R
LONGVIEW       PTSUNNY   69  67  93 CALM      29.96R
MARSHALL       CLOUDY    73  71  93 CALM      29.98R VSB 1/2
ATHENS         CLOUDY    70  68  94 NE3       29.94R
PALESTINE      CLOUDY    72  71  96 CALM      29.95R
JACKSONVILLE   CLOUDY    70  69  94 CALM      29.97R
HENDERSON      SUNNY     68  68 100 CALM      29.97R
NACOGDOCHES    MOSUNNY   72  68  88 CALM      29.95R
LUFKIN         CLOUDY    75  71  87 E3        29.94R FOG
$$

SUPPLEMENTAL OBSERVATIONS (CENTRAL)

CITY           SKY/WX    TMP DP  RH WIND       PRES   REMARKS
CADDO GRASSLND   N/A     72  70  94 E2          N/A
PAT MAYSE LAKE   N/A     70  68  94 NE3         N/A
GREENVILLE       N/A     70  64  83 E5          N/A
CEDAR HILL       N/A     70  66  88 NE1         N/A
MCGREGOR         N/A     70  68  94 E5          N/A
TEMPLE           N/A     72  70  94 NE7         N/A
$$

SUPPLEMENTAL OBSERVATIONS (WEST)

CITY           SKY/WX    TMP DP  RH WIND       PRES   REMARKS
MILLERS CREEK    N/A     70  66  88 S3          N/A
POSSUM KINGDOM   N/A     70  68  94 SE3         N/A
LBJ GRASSLAND    N/A     68  63  83 E3          N/A
GRANBURY         N/A     70  66  88 NE3         N/A
HAMBY            N/A     70  68  94 SE3         N/A
$$

SUPPLEMENTAL OBSERVATIONS (EAST)

CITY           SKY/WX    TMP DP  RH WIND       PRES   REMARKS
TEXARKANA        N/A     70  66  88 NE3         N/A
LINDEN           N/A     72  70  94 E3          N/A
LUFKIN           N/A     73  68  83 MISG        N/A
N SABINE NF      N/A     68  66  94 MISG        N/A
$$

SUPPLEMENTAL OBSERVATIONS ARE A COLLECTION OF AUTOMATED INSTRUMENTS
THAT ARE MAINTAINED BY A VARIETY OF FEDERAL AND STATE AGENCIES.
CERTAIN ELEMENTS...SUCH AS HUMIDITY VALUES AND SUSTAINED WIND
SPEEDS...MAY BE APPROXIMATED.




USA.gov is the U.S. government's official web portal to all federal, state and local government web resources and services.